Time,TemperatureF,DewpointF,PressureIn,WindDirection,WindDirectionDegrees,WindSpeedMPH,WindSpeedGustMPH,Humidity,HourlyPrecipIn,Conditions,Clouds,dailyrainin,SoftwareType,DateUTC
2013-04-21 00:00:00,43.9,21.7,30.12,SSW,192,7.0,12.0,41,0.00,CLR,CLR,0.00,WeatherDisplay:10.37,2013-04-20 23:00:00,
2013-04-21 00:05:00,43.9,21.7,30.12,SSW,194,6.0,12.0,41,0.00,CLR,CLR,0.00,WeatherDisplay:10.37,2013-04-20 23:05:00,
2013-04-21 00:10:00,44.1,21.8,30.12,SSW,203,5.0,13.0,41,0.00,CLR,CLR,0.00,WeatherDisplay:10.37,2013-04-20 23:10:00,
2013-04-21 00:20:00,44.1,22.4,30.12,SSW,192,6.0,15.0,42,0.00,CLR,CLR,0.00,WeatherDisplay:10.37,2013-04-20 23:20:00,
2013-04-21 00:30:00,44.1,22.4,30.12,SSW,192,6.0,13.0,42,0.00,CLR,CLR,0.00,WeatherDisplay:10.37,2013-04-20 23:30:00,
2013-04-21 00:40:00,44.2,23.1,30.12,SSW,192,7.0,12.0,43,0.00,CLR,CLR,0.00,WeatherDisplay:10.37,2013-04-20 23:40:00,
2013-04-21 00:50:00,44.2,23.1,30.12,SSW,192,8.0,13.0,43,0.00,CLR,CLR,0.00,WeatherDisplay:10.37,2013-04-20 23:50:00,
2013-04-21 01:00:00,44.4,23.3,30.12,SSW,194,5.0,9.0,43,0.00,CLR,CLR,0.00,WeatherDisplay:10.37,2013-04-21 00:00:00,
2013-04-21 01:10:00,44.6,23.4,30.09,SSW,200,6.0,13.0,43,0.00,CLR,CLR,0.00,WeatherDisplay:10.37,2013-04-21 00:10:00,
2013-04-21 01:20:00,44.6,24.0,30.09,South,191,5.0,12.0,44,0.00,CLR,CLR,0.00,WeatherDisplay:10.37,2013-04-21 00:20:00,
2013-04-21 01:30:00,44.6,24.0,30.09,South,187,5.0,8.0,44,0.00,CLR,CLR,0.00,WeatherDisplay:10.37,2013-04-21 00:30:00,
2013-04-21 01:40:00,44.8,24.7,30.09,South,190,6.0,11.0,45,0.00,CLR,CLR,0.00,WeatherDisplay:10.37,2013-04-21 00:40:00,
2013-04-21 01:50:00,44.8,25.2,30.09,South,182,8.0,15.0,46,0.00,CLR,CLR,0.00,WeatherDisplay:10.37,2013-04-21 00:50:00,
2013-04-21 02:00:00,44.8,25.2,30.09,South,186,7.0,10.0,46,0.00,CLR,CLR,0.00,WeatherDisplay:10.37,2013-04-21 01:00:00,
2013-04-21 02:05:00,44.8,25.2,30.08,SSW,192,5.0,11.0,46,0.00,CLR,CLR,0.00,WeatherDisplay:10.37,2013-04-21 01:05:00,
2013-04-21 02:10:00,44.8,25.2,30.06,SSW,194,3.0,12.0,46,0.00,CLR,CLR,0.00,WeatherDisplay:10.37,2013-04-21 01:10:00,
2013-04-21 02:20:00,44.8,25.2,30.06,South,176,5.0,10.0,46,0.00,CLR,CLR,0.00,WeatherDisplay:10.37,2013-04-21 01:20:00,
2013-04-21 02:25:00,44.8,25.2,30.06,South,176,7.0,13.0,46,0.00,CLR,CLR,0.00,WeatherDisplay:10.37,2013-04-21 01:25:00,
2013-04-21 02:30:00,44.8,25.2,30.06,South,174,6.0,12.0,46,0.00,CLR,CLR,0.00,WeatherDisplay:10.37,2013-04-21 01:30:00,
2013-04-21 02:40:00,44.8,25.2,30.06,SSW,194,6.0,11.0,46,0.00,CLR,CLR,0.00,WeatherDisplay:10.37,2013-04-21 01:40:00,
2013-04-21 02:50:00,44.8,25.2,30.06,South,187,6.0,12.0,46,0.00,CLR,CLR,0.00,WeatherDisplay:10.37,2013-04-21 01:50:00,
2013-04-21 03:00:00,44.8,25.2,30.06,South,189,7.0,13.0,46,0.00,CLR,CLR,0.00,WeatherDisplay:10.37,2013-04-21 02:00:00,
2013-04-21 03:05:00,44.8,25.2,30.06,SSW,199,6.0,10.0,46,0.00,CLR,CLR,0.00,WeatherDisplay:10.37,2013-04-21 02:05:00,
2013-04-21 03:10:00,44.8,25.2,30.03,SSW,201,7.0,10.0,46,0.00,CLR,CLR,0.00,WeatherDisplay:10.37,2013-04-21 02:10:00,
2013-04-21 03:20:00,44.8,25.2,30.03,SSW,194,7.0,12.0,46,0.00,CLR,CLR,0.00,WeatherDisplay:10.37,2013-04-21 02:20:00,
2013-04-21 03:30:00,44.6,25.1,30.03,South,186,3.0,9.0,46,0.00,CLR,CLR,0.00,WeatherDisplay:10.37,2013-04-21 02:30:00,
2013-04-21 03:40:00,44.4,24.9,30.03,South,191,6.0,8.0,46,0.00,CLR,CLR,0.00,WeatherDisplay:10.37,2013-04-21 02:40:00,
2013-04-21 03:50:00,44.4,25.4,30.03,South,191,6.0,11.0,47,0.00,CLR,CLR,0.00,WeatherDisplay:10.37,2013-04-21 02:50:00,
2013-04-21 04:00:00,44.4,24.9,30.03,SSW,194,3.0,9.0,46,0.00,CLR,CLR,0.00,WeatherDisplay:10.37,2013-04-21 03:00:00,
2013-04-21 04:05:00,44.4,24.9,30.03,South,189,5.0,10.0,46,0.00,CLR,CLR,0.00,WeatherDisplay:10.37,2013-04-21 03:05:00,
2013-04-21 04:10:00,44.4,24.9,30.03,South,184,8.0,13.0,46,0.00,CLR,CLR,0.00,WeatherDisplay:10.37,2013-04-21 03:10:00,
2013-04-21 04:20:00,44.4,24.4,30.03,South,181,6.0,10.0,45,0.00,CLR,CLR,0.00,WeatherDisplay:10.37,2013-04-21 03:20:00,
2013-04-21 04:30:00,44.4,24.4,30.03,South,187,5.0,9.0,45,0.00,CLR,CLR,0.00,WeatherDisplay:10.37,2013-04-21 03:30:00,
2013-04-21 04:40:00,44.2,24.2,30.00,SSW,193,6.0,12.0,45,0.00,CLR,CLR,0.00,WeatherDisplay:10.37,2013-04-21 03:40:00,
2013-04-21 04:50:00,44.2,24.2,30.00,South,189,6.0,9.0,45,0.00,CLR,CLR,0.00,WeatherDisplay:10.37,2013-04-21 03:50:00,
2013-04-21 05:00:00,44.2,24.2,30.00,South,183,6.0,12.0,45,0.00,CLR,CLR,0.00,WeatherDisplay:10.37,2013-04-21 04:00:00,
2013-04-21 05:05:00,44.2,24.2,30.00,South,187,5.0,11.0,45,0.00,CLR,CLR,0.00,WeatherDisplay:10.37,2013-04-21 04:05:00,
2013-04-21 05:10:00,44.2,24.2,30.00,South,191,8.0,14.0,45,0.00,CLR,CLR,0.00,WeatherDisplay:10.37,2013-04-21 04:10:00,
2013-04-21 05:15:00,44.2,24.2,30.00,South,191,7.0,10.0,45,0.00,CLR,CLR,0.00,WeatherDisplay:10.37,2013-04-21 04:15:00,
2013-04-21 05:20:00,44.2,24.2,30.00,SSW,193,8.0,15.0,45,0.00,CLR,CLR,0.00,WeatherDisplay:10.37,2013-04-21 04:20:00,
2013-04-21 05:30:00,44.2,24.2,30.00,South,184,8.0,10.0,45,0.00,CLR,CLR,0.00,WeatherDisplay:10.37,2013-04-21 04:30:00,
2013-04-21 05:40:00,44.2,24.2,30.00,South,179,10.0,15.0,45,0.00,CLR,CLR,0.00,WeatherDisplay:10.37,2013-04-21 04:40:00,
2013-04-21 05:50:00,44.1,24.6,30.00,South,186,7.0,15.0,46,0.00,CLR,CLR,0.00,WeatherDisplay:10.37,2013-04-21 04:50:00,
2013-04-21 05:55:00,44.1,25.1,29.97,South,185,8.0,13.0,47,0.00,CLR,CLR,0.00,WeatherDisplay:10.37,2013-04-21 04:55:00,
2013-04-21 06:00:00,44.1,25.1,29.97,South,186,7.0,12.0,47,0.00,CLR,CLR,0.00,WeatherDisplay:10.37,2013-04-21 05:00:00,
2013-04-21 06:05:00,43.9,25.4,29.97,SSW,192,9.0,15.0,48,0.00,CLR,CLR,0.00,WeatherDisplay:10.37,2013-04-21 05:05:00,
2013-04-21 06:10:00,43.9,25.4,29.97,SSW,199,6.0,12.0,48,0.00,CLR,CLR,0.00,WeatherDisplay:10.37,2013-04-21 05:10:00,
2013-04-21 06:20:00,43.7,25.3,29.97,South,185,7.0,13.0,48,0.00,CLR,CLR,0.00,WeatherDisplay:10.37,2013-04-21 05:20:00,
2013-04-21 06:30:00,43.7,25.8,29.97,SSW,194,8.0,13.0,49,0.00,CLR,CLR,0.00,WeatherDisplay:10.37,2013-04-21 05:30:00,
2013-04-21 06:40:00,43.7,25.7,29.97,South,187,8.0,13.0,49,0.00,CLR,CLR,0.00,WeatherDisplay:10.37,2013-04-21 05:40:00,
2013-04-21 06:50:00,43.5,25.6,29.97,South,190,6.0,11.0,49,0.00,CLR,CLR,0.00,WeatherDisplay:10.37,2013-04-21 05:50:00,
2013-04-21 07:00:00,43.3,25.9,29.97,SSW,192,5.0,11.0,50,0.00,CLR,CLR,0.00,WeatherDisplay:10.37,2013-04-21 06:00:00,
2013-04-21 07:10:00,43.3,26.4,29.97,South,178,7.0,12.0,51,0.00,CLR,CLR,0.00,WeatherDisplay:10.37,2013-04-21 06:10:00,
2013-04-21 07:20:00,43.3,26.4,29.97,South,189,8.0,13.0,51,0.00,CLR,CLR,0.00,WeatherDisplay:10.37,2013-04-21 06:20:00,
2013-04-21 07:30:00,43.3,26.9,29.97,South,179,5.0,11.0,52,0.00,CLR,CLR,0.00,WeatherDisplay:10.37,2013-04-21 06:30:00,
2013-04-21 07:40:00,43.5,27.5,29.97,South,179,6.0,15.0,53,0.00,CLR,CLR,0.00,WeatherDisplay:10.37,2013-04-21 06:40:00,
2013-04-21 07:50:00,43.7,27.7,29.97,South,175,6.0,9.0,53,0.00,CLR,CLR,0.00,WeatherDisplay:10.37,2013-04-21 06:50:00,
2013-04-21 08:00:00,43.7,27.7,29.97,South,177,6.0,12.0,53,0.00,CLR,CLR,0.00,WeatherDisplay:10.37,2013-04-21 07:00:00,
2013-04-21 08:10:00,43.7,28.1,29.94,South,180,6.0,11.0,54,0.00,CLR,CLR,0.00,WeatherDisplay:10.37,2013-04-21 07:10:00,
2013-04-21 08:20:00,43.9,28.3,29.94,South,180,6.0,8.0,54,0.00,CLR,CLR,0.00,WeatherDisplay:10.37,2013-04-21 07:20:00,
2013-04-21 08:30:00,43.9,28.3,29.94,South,188,6.0,13.0,54,0.00,CLR,CLR,0.00,WeatherDisplay:10.37,2013-04-21 07:30:00,
2013-04-21 08:40:00,44.1,28.9,29.94,South,184,6.0,8.0,55,0.00,CLR,CLR,0.00,WeatherDisplay:10.37,2013-04-21 07:40:00,
2013-04-21 08:50:00,44.1,28.9,29.94,SSW,192,5.0,13.0,55,0.04,RA,RA,0.04,WeatherDisplay:10.37,2013-04-21 07:50:00,
2013-04-21 09:00:00,44.2,29.5,29.91,South,187,5.0,8.0,56,0.00,,,0.04,WeatherDisplay:10.37,2013-04-21 08:00:00,
2013-04-21 09:10:00,44.6,29.9,29.91,South,184,7.0,12.0,56,0.00,,,0.04,WeatherDisplay:10.37,2013-04-21 08:10:00,
2013-04-21 09:20:00,45.1,30.8,29.91,South,189,5.0,8.0,57,0.00,,,0.04,WeatherDisplay:10.37,2013-04-21 08:20:00,
2013-04-21 09:30:00,45.5,31.1,29.91,SSW,196,3.0,9.0,57,0.00,,,0.04,WeatherDisplay:10.37,2013-04-21 08:30:00,
2013-04-21 09:40:00,45.7,31.3,29.91,SSW,200,5.0,11.0,57,0.00,,,0.04,WeatherDisplay:10.37,2013-04-21 08:40:00,
2013-04-21 09:50:00,45.5,31.1,29.91,SSW,202,6.0,8.0,57,0.00,CLR,CLR,0.04,WeatherDisplay:10.37,2013-04-21 08:50:00,
2013-04-21 10:00:00,45.5,31.1,29.91,SSW,203,6.0,10.0,57,0.00,CLR,CLR,0.04,WeatherDisplay:10.37,2013-04-21 09:00:00,
2013-04-21 10:10:00,45.9,31.5,29.91,SSW,201,7.0,12.0,57,0.00,CLR,CLR,0.04,WeatherDisplay:10.37,2013-04-21 09:10:00,
2013-04-21 10:20:00,45.9,31.0,29.91,SSW,200,7.0,12.0,56,0.00,CLR,CLR,0.04,WeatherDisplay:10.37,2013-04-21 09:20:00,
2013-04-21 10:25:00,45.9,30.6,29.91,SSW,204,7.0,12.0,55,0.00,CLR,CLR,0.04,WeatherDisplay:10.37,2013-04-21 09:25:00,
2013-04-21 10:30:00,45.1,28.1,29.91,SSW,212,12.0,19.0,51,0.00,CLR,CLR,0.04,WeatherDisplay:10.37,2013-04-21 09:30:00,
2013-04-21 10:40:00,44.1,26.7,29.91,SSW,209,8.0,14.0,50,0.00,CLR,CLR,0.04,WeatherDisplay:10.37,2013-04-21 09:40:00,
2013-04-21 10:50:00,43.9,27.4,29.91,SW,214,9.0,14.0,52,0.00,CLR,CLR,0.04,WeatherDisplay:10.37,2013-04-21 09:50:00,
2013-04-21 11:00:00,43.7,26.7,29.88,SW,217,7.0,12.0,51,0.00,CLR,CLR,0.04,WeatherDisplay:10.37,2013-04-21 10:00:00,
2013-04-21 11:05:00,43.7,26.3,29.89,SSW,213,8.0,15.0,50,0.00,CLR,CLR,0.04,WeatherDisplay:10.37,2013-04-21 10:05:00,
2013-04-21 11:10:00,43.9,26.4,29.91,SSW,212,6.0,10.0,50,0.00,CLR,CLR,0.04,WeatherDisplay:10.37,2013-04-21 10:10:00,
2013-04-21 11:20:00,44.1,26.1,29.91,SW,214,12.0,13.0,49,0.00,CLR,CLR,0.04,WeatherDisplay:10.37,2013-04-21 10:20:00,
2013-04-21 11:30:00,44.4,26.4,29.91,SW,221,9.0,13.0,49,0.00,CLR,CLR,0.04,WeatherDisplay:10.37,2013-04-21 10:30:00,
2013-04-21 11:40:00,44.4,25.9,29.91,SW,214,8.0,10.0,48,0.00,CLR,CLR,0.04,WeatherDisplay:10.37,2013-04-21 10:40:00,
2013-04-21 11:50:00,44.4,26.4,29.91,SSW,205,7.0,12.0,49,0.00,CLR,CLR,0.04,WeatherDisplay:10.37,2013-04-21 10:50:00,
2013-04-21 12:00:00,44.6,27.1,29.91,SSW,205,8.0,13.0,50,0.00,CLR,CLR,0.04,WeatherDisplay:10.37,2013-04-21 11:00:00,
2013-04-21 12:05:00,44.8,27.3,29.91,SSW,208,8.0,13.0,50,0.00,CLR,CLR,0.04,WeatherDisplay:10.37,2013-04-21 11:05:00,
2013-04-21 12:10:00,45.0,26.9,29.91,SSW,213,9.0,13.0,49,0.00,CLR,CLR,0.04,WeatherDisplay:10.37,2013-04-21 11:10:00,
2013-04-21 12:20:00,45.5,26.9,29.91,SSW,206,6.0,13.0,48,0.00,CLR,CLR,0.04,WeatherDisplay:10.37,2013-04-21 11:20:00,
2013-04-21 12:30:00,46.0,24.8,29.91,SW,215,9.0,15.0,43,0.00,CLR,CLR,0.04,WeatherDisplay:10.37,2013-04-21 11:30:00,
2013-04-21 12:40:00,45.9,22.3,29.91,SSW,206,9.0,13.0,39,0.00,CLR,CLR,0.04,WeatherDisplay:10.37,2013-04-21 11:40:00,
2013-04-21 12:50:00,46.2,23.2,29.91,SSW,202,8.0,12.0,40,0.00,CLR,CLR,0.04,WeatherDisplay:10.37,2013-04-21 11:50:00,
2013-04-21 13:00:00,47.1,22.8,29.88,SSW,199,10.0,14.0,38,0.00,CLR,CLR,0.04,WeatherDisplay:10.37,2013-04-21 12:00:00,
2013-04-21 13:10:00,47.7,22.6,29.88,SSW,211,9.0,15.0,37,0.00,CLR,CLR,0.04,WeatherDisplay:10.37,2013-04-21 12:10:00,
2013-04-21 13:20:00,47.8,22.1,29.88,SSW,199,8.0,12.0,36,0.00,CLR,CLR,0.04,WeatherDisplay:10.37,2013-04-21 12:20:00,
2013-04-21 13:30:00,47.5,19.0,29.88,SSW,198,13.0,17.0,32,0.00,CLR,CLR,0.04,WeatherDisplay:10.37,2013-04-21 12:30:00,
2013-04-21 13:40:00,46.8,21.8,29.88,SSW,203,8.0,12.0,37,0.00,CLR,CLR,0.04,WeatherDisplay:10.37,2013-04-21 12:40:00,
2013-04-21 13:50:00,46.2,22.6,29.88,SW,223,5.0,9.0,39,0.00,CLR,CLR,0.04,WeatherDisplay:10.37,2013-04-21 12:50:00,
2013-04-21 14:00:00,46.4,22.8,29.88,SW,222,9.0,13.0,39,0.00,CLR,CLR,0.04,WeatherDisplay:10.37,2013-04-21 13:00:00,
2013-04-21 14:10:00,46.6,21.7,29.88,SSW,210,9.0,13.0,37,0.00,CLR,CLR,0.04,WeatherDisplay:10.37,2013-04-21 13:10:00,
2013-04-21 14:20:00,47.1,22.1,29.88,SSW,208,9.0,13.0,37,0.00,CLR,CLR,0.04,WeatherDisplay:10.37,2013-04-21 13:20:00,
2013-04-21 14:30:00,47.5,19.8,29.88,SW,222,8.0,13.0,33,0.00,CLR,CLR,0.04,WeatherDisplay:10.37,2013-04-21 13:30:00,
2013-04-21 14:40:00,48.7,20.2,29.88,SSW,211,7.0,12.0,32,0.00,CLR,CLR,0.04,WeatherDisplay:10.37,2013-04-21 13:40:00,
2013-04-21 14:50:00,50.1,18.2,29.88,SW,215,6.0,15.0,28,0.00,CLR,CLR,0.04,WeatherDisplay:10.37,2013-04-21 13:50:00,
2013-04-21 15:00:00,50.9,18.9,29.88,SSW,209,6.0,13.0,28,0.00,CLR,CLR,0.04,WeatherDisplay:10.37,2013-04-21 14:00:00,
2013-04-21 15:05:00,51.3,17.5,29.88,SSW,204,9.0,14.0,26,0.00,CLR,CLR,0.04,WeatherDisplay:10.37,2013-04-21 14:05:00,
2013-04-21 15:10:00,51.1,17.3,29.85,SSW,204,9.0,15.0,26,0.00,CLR,CLR,0.04,WeatherDisplay:10.37,2013-04-21 14:10:00,
2013-04-21 15:15:00,50.7,17.0,29.85,SSW,210,8.0,12.0,26,0.00,CLR,CLR,0.04,WeatherDisplay:10.37,2013-04-21 14:15:00,
2013-04-21 15:20:00,50.7,17.0,29.85,SW,233,7.0,12.0,26,0.00,CLR,CLR,0.04,WeatherDisplay:10.37,2013-04-21 14:20:00,
2013-04-21 15:30:00,51.1,17.3,29.85,SW,235,6.0,12.0,26,0.00,CLR,CLR,0.04,WeatherDisplay:10.37,2013-04-21 14:30:00,
2013-04-21 15:35:00,51.7,17.9,29.85,SW,224,7.0,10.0,26,0.00,CLR,CLR,0.04,WeatherDisplay:10.37,2013-04-21 14:35:00,
2013-04-21 15:40:00,52.0,16.3,29.85,SW,215,8.0,15.0,24,0.00,CLR,CLR,0.04,WeatherDisplay:10.37,2013-04-21 14:40:00,
2013-04-21 15:50:00,52.3,15.5,29.85,SW,230,10.0,14.0,23,0.00,CLR,CLR,0.04,WeatherDisplay:10.37,2013-04-21 14:50:00,
2013-04-21 16:00:00,52.2,15.4,29.85,SW,235,8.0,14.0,23,0.00,CLR,CLR,0.04,WeatherDisplay:10.37,2013-04-21 15:00:00,
2013-04-21 16:05:00,52.0,15.3,29.85,SW,234,6.0,12.0,23,0.00,CLR,CLR,0.04,WeatherDisplay:10.37,2013-04-21 15:05:00,
2013-04-21 16:10:00,52.2,15.4,29.85,SW,232,6.0,12.0,23,0.00,CLR,CLR,0.04,WeatherDisplay:10.37,2013-04-21 15:10:00,
2013-04-21 16:20:00,52.8,15.9,29.85,WSW,251,6.0,10.0,23,0.00,CLR,CLR,0.04,WeatherDisplay:10.37,2013-04-21 15:20:00,
2013-04-21 16:30:00,52.7,15.9,29.85,SW,226,10.0,13.0,23,0.00,CLR,CLR,0.04,WeatherDisplay:10.37,2013-04-21 15:30:00,
2013-04-21 16:40:00,52.2,15.4,29.85,SSW,205,12.0,15.0,23,0.00,CLR,CLR,0.04,WeatherDisplay:10.37,2013-04-21 15:40:00,
2013-04-21 16:50:00,52.0,15.3,29.85,SW,217,12.0,17.0,23,0.00,CLR,CLR,0.04,WeatherDisplay:10.37,2013-04-21 15:50:00,
2013-04-21 17:00:00,50.9,15.3,29.85,SW,227,7.0,17.0,24,0.00,CLR,CLR,0.04,WeatherDisplay:10.37,2013-04-21 16:00:00,
2013-04-21 17:10:00,51.1,17.3,29.85,WSW,237,8.0,13.0,26,0.00,CLR,CLR,0.04,WeatherDisplay:10.37,2013-04-21 16:10:00,
2013-04-21 17:20:00,51.1,17.3,29.85,SW,229,7.0,12.0,26,0.00,CLR,CLR,0.04,WeatherDisplay:10.37,2013-04-21 16:20:00,
2013-04-21 17:30:00,50.0,16.4,29.85,WSW,241,7.0,13.0,26,0.00,CLR,CLR,0.04,WeatherDisplay:10.37,2013-04-21 16:30:00,
2013-04-21 17:40:00,49.6,17.0,29.83,West,274,8.0,13.0,27,0.00,CLR,CLR,0.04,WeatherDisplay:10.37,2013-04-21 16:40:00,
2013-04-21 17:50:00,49.1,16.5,29.83,SW,225,7.0,15.0,27,0.00,CLR,CLR,0.04,WeatherDisplay:10.37,2013-04-21 16:50:00,
2013-04-21 18:00:00,48.7,17.0,29.83,SW,215,8.0,13.0,28,0.00,CLR,CLR,0.04,WeatherDisplay:10.37,2013-04-21 17:00:00,
2013-04-21 18:10:00,48.6,16.9,29.85,WSW,245,8.0,13.0,28,0.00,CLR,CLR,0.04,WeatherDisplay:10.37,2013-04-21 17:10:00,
2013-04-21 18:20:00,48.0,17.2,29.85,WSW,237,7.0,14.0,29,0.00,CLR,CLR,0.04,WeatherDisplay:10.37,2013-04-21 17:20:00,
2013-04-21 18:30:00,47.3,16.6,29.85,SW,215,10.0,13.0,29,0.00,CLR,CLR,0.04,WeatherDisplay:10.37,2013-04-21 17:30:00,
2013-04-21 18:40:00,46.7,17.6,29.85,SW,219,6.0,12.0,31,0.00,CLR,CLR,0.04,WeatherDisplay:10.37,2013-04-21 17:40:00,
2013-04-21 18:50:00,46.8,18.4,29.85,SW,216,8.0,10.0,32,0.00,CLR,CLR,0.04,WeatherDisplay:10.37,2013-04-21 17:50:00,
2013-04-21 19:00:00,46.6,19.7,29.85,SSW,209,9.0,13.0,34,0.00,CLR,CLR,0.04,WeatherDisplay:10.37,2013-04-21 18:00:00,
2013-04-21 19:05:00,46.6,19.7,29.85,SW,215,7.0,10.0,34,0.00,CLR,CLR,0.04,WeatherDisplay:10.37,2013-04-21 18:05:00,
2013-04-21 19:10:00,46.8,19.8,29.85,SW,222,6.0,12.0,34,0.00,CLR,CLR,0.04,WeatherDisplay:10.37,2013-04-21 18:10:00,
2013-04-21 19:20:00,46.8,19.1,29.85,SW,227,7.0,13.0,33,0.00,CLR,CLR,0.04,WeatherDisplay:10.37,2013-04-21 18:20:00,
2013-04-21 19:30:00,46.6,17.5,29.85,SW,218,7.0,12.0,31,0.00,CLR,CLR,0.04,WeatherDisplay:10.37,2013-04-21 18:30:00,
2013-04-21 19:40:00,46.4,16.6,29.85,SW,217,6.0,12.0,30,0.00,CLR,CLR,0.04,WeatherDisplay:10.37,2013-04-21 18:40:00,
2013-04-21 19:50:00,46.0,16.3,29.85,SW,216,6.0,12.0,30,0.00,CLR,CLR,0.04,WeatherDisplay:10.37,2013-04-21 18:50:00,
2013-04-21 20:00:00,45.5,15.8,29.85,SW,218,7.0,12.0,30,0.00,CLR,CLR,0.04,WeatherDisplay:10.37,2013-04-21 19:00:00,
2013-04-21 20:10:00,45.1,16.3,29.85,SSW,212,6.0,8.0,31,0.00,CLR,CLR,0.04,WeatherDisplay:10.37,2013-04-21 19:10:00,
2013-04-21 20:20:00,44.6,16.5,29.85,SSW,209,6.0,8.0,32,0.00,CLR,CLR,0.04,WeatherDisplay:10.37,2013-04-21 19:20:00,
2013-04-21 20:30:00,44.2,16.9,29.85,SSW,210,3.0,6.0,33,0.00,CLR,CLR,0.04,WeatherDisplay:10.37,2013-04-21 19:30:00,
2013-04-21 20:40:00,43.7,17.1,29.85,SW,224,5.0,8.0,34,0.00,CLR,CLR,0.04,WeatherDisplay:10.37,2013-04-21 19:40:00,
2013-04-21 20:50:00,43.5,17.6,29.85,SSW,206,6.0,10.0,35,0.00,CLR,CLR,0.04,WeatherDisplay:10.37,2013-04-21 19:50:00,
2013-04-21 21:00:00,43.3,19.4,29.85,SSW,209,6.0,11.0,38,0.00,CLR,CLR,0.04,WeatherDisplay:10.37,2013-04-21 20:00:00,
2013-04-21 21:10:00,43.0,19.1,29.85,SSW,210,5.0,8.0,38,0.00,CLR,CLR,0.04,WeatherDisplay:10.37,2013-04-21 20:10:00,
2013-04-21 21:20:00,42.6,19.4,29.85,SSW,204,5.0,8.0,39,0.00,CLR,CLR,0.04,WeatherDisplay:10.37,2013-04-21 20:20:00,
2013-04-21 21:31:00,42.3,19.0,29.85,SW,214,6.0,8.0,39,0.00,CLR,CLR,0.04,WeatherDisplay:10.37,2013-04-21 20:31:00,
2013-04-21 21:40:00,42.1,19.5,29.85,SW,217,6.0,9.0,40,0.00,CLR,CLR,0.04,WeatherDisplay:10.37,2013-04-21 20:40:00,
2013-04-21 21:50:00,41.7,19.7,29.85,SSW,208,6.0,9.0,41,0.00,CLR,CLR,0.04,WeatherDisplay:10.37,2013-04-21 20:50:00,
2013-04-21 22:00:00,41.5,20.1,29.85,SSW,206,6.0,8.0,42,0.00,CLR,CLR,0.04,WeatherDisplay:10.37,2013-04-21 21:00:00,
2013-04-21 22:05:00,41.2,19.8,29.85,SSW,207,5.0,8.0,42,0.00,CLR,CLR,0.04,WeatherDisplay:10.37,2013-04-21 21:05:00,
2013-04-21 22:10:00,41.2,19.8,29.85,SSW,204,5.0,8.0,42,0.00,CLR,CLR,0.04,WeatherDisplay:10.37,2013-04-21 21:10:00,
2013-04-21 22:20:00,40.6,19.9,29.85,SSW,194,2.0,6.0,43,0.00,CLR,CLR,0.04,WeatherDisplay:10.37,2013-04-21 21:20:00,
2013-04-21 22:30:00,40.1,18.8,29.85,South,186,0.0,6.0,42,0.00,CLR,CLR,0.04,WeatherDisplay:10.37,2013-04-21 21:30:00,
2013-04-21 22:35:00,39.7,18.5,29.85,South,182,3.0,6.0,42,0.00,CLR,CLR,0.04,WeatherDisplay:10.37,2013-04-21 21:35:00,
2013-04-21 22:40:00,39.6,18.9,29.85,South,178,5.0,6.0,43,0.00,CLR,CLR,0.04,WeatherDisplay:10.37,2013-04-21 21:40:00,
2013-04-21 22:50:00,39.4,18.7,29.85,South,182,3.0,7.0,43,0.00,CLR,CLR,0.04,WeatherDisplay:10.37,2013-04-21 21:50:00,
2013-04-21 23:00:00,39.4,19.3,29.85,SSW,197,5.0,8.0,44,0.00,CLR,CLR,0.04,WeatherDisplay:10.37,2013-04-21 22:00:00,
2013-04-21 23:05:00,39.6,19.9,29.85,SSW,198,5.0,8.0,45,0.00,CLR,CLR,0.04,WeatherDisplay:10.37,2013-04-21 22:05:00,
2013-04-21 23:10:00,39.7,20.6,29.85,SSW,201,5.0,8.0,46,0.00,CLR,CLR,0.04,WeatherDisplay:10.37,2013-04-21 22:10:00,
2013-04-21 23:20:00,39.9,21.8,29.85,SSW,205,6.0,10.0,48,0.00,CLR,CLR,0.04,WeatherDisplay:10.37,2013-04-21 22:20:00,
2013-04-21 23:30:00,40.3,22.1,29.85,SSW,200,5.0,8.0,48,0.00,CLR,CLR,0.04,WeatherDisplay:10.37,2013-04-21 22:30:00,
2013-04-21 23:40:00,40.5,22.8,29.85,SSW,206,5.0,11.0,49,0.00,CLR,CLR,0.04,WeatherDisplay:10.37,2013-04-21 22:40:00,
2013-04-21 23:50:00,40.6,22.9,29.85,SSW,199,6.0,10.0,49,0.00,CLR,CLR,0.04,WeatherDisplay:10.37,2013-04-21 22:50:00,